SL-19 DEB, 23480

Orbit data source: Space-Track

SL-19 DEB, 23480 is space debris in LEO originally from a launch on Mon, 26 Dec 1994 UTC launched from the Tyuratam Missile And Space Complex (TTMTR). Debris objects in space refer to the collection of defunct objects orbiting the Earth. Examples of debris include non-operational satellites, rocket bodies, and fragments generated from explosions, collisions, or faulty payload assembly.

Loading next visibility...
Identifier
23480, 1994-085D
Orbit
LEO
Last TLE update
17 hours ago
Origin
Manufacturer
Unknown
Mission
Spacecraft
Bus & Motor
Unknown
Mass
Unknown
Launch date (UTC)
1994-12-26 (31 years ago)
Launch vehicle
Unknown
Launch site
Tyuratam Missile And Space Complex (TTMTR)
Object type
Payload
Rocket body
Debris
Shape & HBR
Unknown
Radar Cross Section
Medium (>0.1 m² and <1 m²)

Expand to show TLE details & history

TLE from 17 hours ago
0 SL-19 DEB
1 23480U 94085D   25183.40738875  .00001527  00000-0  34986-1 0  9990
2 23480  64.7061 354.2915 0223636 200.5259 177.0492 11.45971888537240
Epoch: 2025-07-02T09:46Z
TLE epoch observation values (Epoch: 2025-07-02T09:46:38.387Z)
Latitude
15.95581°
Longitude
-65.3278°
Altitude
2,118.879 km
Speed
6.775 km/s
True Right ascension
00h 08m 05s
True Declination
15° 52' 47"
Sunlit
Object was in daylight at epoch
Visualization orbit readout
Latitude
47.3347°
Longitude
75.03373°
Altitude
1,885.566 km
Speed
6.973 km/s
Apparent Right ascension
06h 30m 31s
Apparent Declination
16° 04' 16"
Sunlit
Object is in daylight
Visualization observer readout
Local Sidereal Time
14:55:41
Azimuth
306.699° NW
Elevation
-14.987°
Doppler factor
1
Orbital elements
Apogee altitude
2,116.839 km
Perigee altitude
1,745.194 km
Semi-major axis
8,309.153 km
Eccentricity
0.02236
Inclination
64.7061°
RAAN
354.2915°
Arg. of periapsis
200.5259°
True anomaly
Unknown
Mean anomaly
177.0492°
Eccentric anomaly
Unknown
Mean motion
2.86555 °/min
Orbital period
125.63 mins
BSTAR
0.034986
Loading maneuver chart data...
Loading SW <> Apogee altitude chart data...
Loading historical data...
Loading historical data...
Loading historical data...
Loading historical data...
Loading historical data...
Loading historical data...
Loading historical data...

SL-19 DEB Visibility forecast

Observer location: undefined°, undefined°

Span
Click to sort rows by Start time (UTC) header in descending order
Start Az.
Max El. time (UTC)
Max El. Az.
Max El.
End time (UTC)
End Az.
15 mins2025-07-03 10:53:32.856Z142.558° SSE2025-07-03 11:01:32.856Z98.631° ESE20.724°2025-07-03 11:08:32.856Z59.549° ENE
22 mins2025-07-03 12:59:32.856Z206.336° SW2025-07-03 13:10:32.856Z65.373° ENE44.836°2025-07-03 13:21:32.856Z33.177° NE
19 mins2025-07-03 15:12:32.856Z265.808° W2025-07-03 15:21:32.856Z320.682° NNW29.284°2025-07-03 15:31:32.856Z24.698° NE
14 mins2025-07-03 17:30:32.856Z319.832° NNW2025-07-03 17:37:32.856Z359.749° N18.167°2025-07-03 17:44:32.856Z39.755° NE
17 mins2025-07-03 19:44:32.856Z338.74° N2025-07-03 19:52:32.856Z31.312° NE27.06°2025-07-03 20:01:32.856Z90.838° ESE
20 mins2025-07-03 21:54:32.856Z327.708° NNW2025-07-03 22:04:32.856Z23.895° NE44.995°2025-07-03 22:14:32.856Z150.207° SSE
12 mins2025-07-04 00:07:32.856Z295.952° NW2025-07-04 00:13:32.856Z257.022° W19.735°2025-07-04 00:19:32.856Z219.07° SW
|